星链-3630 (STARLINK-3630 )

导读

STARLINK-3630是美国太空探索技术公司(SpaceX)星链(Starlink)卫星互联网项目的卫星,于2022年2月25日发射入轨。星链计划旨在搭建覆盖全球的低轨卫星通信网络,该卫星承担卫星互联网接入服务相关任务,为地面用户提供宽带通信支持,属于Starlink Group 5-1批次。

基本信息
目录编号:
51796
目录名称:
STARLINK-3630
国际标识:
2022-017AE
轨道中心:
EARTH
卫星名称:
星链-3630
卫星全名:
星链-3630 (STARLINK-3630 )
卫星状态:
已陨落 最后检测时间 2024-08-29
发射日期:
2022-02-25 UTC
国别 :
美国 (US)
星等 :
--
轨道信息
数据来源 国际轨道数据
星历时间: 2024-08-29T22:17:45+0800
轨道信息已过期653天
半长轴: 6536.851km
偏心率: 0.0004253
轨道倾角: 53.200°
近地点辐角 187.464°
升交点赤经 310.558°
平近点角 287.570°
近地点: 155.935km
远地点: 161.497km
周期: 87.662分钟
每日圈数: 16.426684
详细信息
固有亮度:
5
最大亮度:
2.5
卫星平台:
Starlink v1.5
覆盖范围:
全球
运营商:
太空探索技术公司
运营商所在国:
美国
制造商(研发单位):
太空探索技术公司
制造商所在国:
美国
使用方式:
暂无
卫星简介
星链(Starlink)计划是由太空探索技术公司(SpaceX)提出的一个巨型低轨卫星互联网星座项目,计划在2019年至2024年间在太空搭建由约1.2万颗卫星组成的“星链”网络,其中1584颗将部署在地球上空550千米处的近地轨道,并从2020年开始工作。该卫星仍在工作。